Date String (YYYY-MM-DD hh:mm:ss) UTC,Instrument flags,absolute air pressure of the measurement (hPa),sample flow rate (lpm),inlet stack bypass flow (lpm),air temperature of the measurement (°C),ambient temperature measured by the external sensor (°C),aerosol sample conditioner tube jacket temperature (°C),OPC LED temperature (°C),internal box temperature (°C),relative humidity of the measurement (%),span deviation,mass concentration of particles derived from Lorenz-Mie calculation of OPC scattering (μg/m³),mass concentration of particles derived from Lorenz-Mie calculation of OPC scattering (μg/m³),mass concentration of particles derived from Lorenz-Mie calculation of OPC scattering (μg/m³)
DateTimeUTC,F1_M11,P_M11,Q1_M11,Q2_M11,T1_M11,T2_M11,T3_M11,T4_M11,T5_M11,U1_M11,ZSPAN_M11,X0_M11,X2_M11,X1_M11
2024-01-04 06:00:00,SystemResetWarning,0826.4,5.00,000.00,022.2,021.3,000.0,030.6,023.4,11.2,0000.0,0010.38,0005.02,0004.44
2024-01-04 06:01:00,SystemResetWarning,0826.4,5.00,000.00,022.2,021.3,000.0,030.6,023.4,11.2,0000.0,0010.82,0005.14,0004.52
2024-01-04 06:02:00,SystemResetWarning,0826.4,5.01,000.00,022.1,021.3,000.0,030.6,023.4,11.2,0000.6,0010.88,0005.25,0004.63
2024-01-04 06:03:00,SystemResetWarning,0826.4,5.01,000.00,022.1,021.3,000.0,030.6,023.3,11.2,0005.3,0010.96,0005.39,0004.78
2024-01-04 06:04:00,SystemResetWarning,0826.3,5.01,000.00,022.1,021.3,000.0,030.6,023.4,11.2,0004.8,0011.19,0005.54,0004.93
2024-01-04 06:05:00,SystemResetWarning,0826.3,5.00,000.00,022.1,021.3,000.0,030.5,023.4,11.2,0004.6,0011.86,0005.71,0005.04
2024-01-04 06:06:00,SystemResetWarning,0826.3,4.99,000.00,022.1,021.2,000.0,030.5,023.3,11.3,0004.3,0012.52,0005.83,0005.14
2024-01-04 06:07:00,SystemResetWarning,0826.3,4.99,000.00,022.1,021.2,000.0,030.5,023.3,11.3,0004.3,0012.64,0005.90,0005.21
2024-01-04 06:08:00,SystemResetWarning,0826.4,4.99,000.00,022.1,021.2,000.0,030.5,023.3,11.3,0004.3,0011.82,0005.97,0005.27
2024-01-04 06:09:00,SystemResetWarning,0826.4,5.00,000.00,022.0,021.2,000.0,030.5,023.3,11.3,0004.6,0012.05,0006.00,0005.31
2024-01-04 06:10:00,SystemResetWarning,0826.4,4.99,000.00,022.0,021.1,000.0,030.5,023.3,11.3,0004.7,0011.95,0005.99,0005.32
2024-01-04 06:11:00,SystemResetWarning,0826.4,5.00,000.00,022.0,021.1,000.0,030.5,023.3,11.3,0004.5,0012.18,0005.96,0005.26
2024-01-04 06:12:00,SystemResetWarning,0826.4,5.01,000.00,022.0,021.1,000.0,030.5,023.3,11.3,0004.4,0011.79,0005.85,0005.15
2024-01-04 06:13:00,SystemResetWarning,0826.4,5.00,000.00,022.0,021.1,000.0,030.4,023.3,11.3,0004.2,0012.15,0005.72,0005.01
2024-01-04 06:14:00,SystemResetWarning,0826.4,5.00,000.00,022.0,021.1,000.0,030.4,023.3,11.3,0004.3,0012.14,0005.54,0004.83
2024-01-04 06:15:00,SystemResetWarning,0826.4,4.99,000.00,022.0,021.1,000.0,030.4,023.3,11.3,0004.8,0011.98,0005.38,0004.66
2024-01-04 06:16:00,SystemResetWarning,0826.5,5.00,000.00,022.0,021.1,000.0,030.4,023.2,11.3,0004.8,0011.68,0005.21,0004.51
2024-01-04 06:17:00,SystemResetWarning,0826.4,4.99,000.00,022.0,021.1,000.0,030.4,023.3,11.3,0002.3,0010.72,0005.04,0004.34
2024-01-04 06:18:00,SystemResetWarning,0826.4,5.00,000.00,022.0,021.1,000.0,030.4,023.3,11.3,0000.0,0010.66,0004.91,0004.21
2024-01-04 06:19:00,SystemResetWarning,0826.4,5.00,000.00,022.0,021.1,000.0,030.4,023.3,11.3,0000.0,0010.56,0004.79,0004.11
2024-01-04 06:20:00,SystemResetWarning,0826.4,5.01,000.00,022.0,021.1,000.0,030.4,023.2,11.4,0000.0,0009.89,0004.68,0004.02
2024-01-04 06:21:00,SystemResetWarning,0826.3,5.01,000.00,021.9,021.1,000.0,030.4,023.2,11.4,0000.0,0009.87,0004.59,0003.97
2024-01-04 06:22:00,SystemResetWarning,0826.3,5.01,000.00,021.9,021.1,000.0,030.4,023.2,11.4,0000.0,0010.18,0004.57,0003.96
2024-01-04 06:23:00,SystemResetWarning,0826.2,5.01,000.00,021.9,021.1,000.0,030.3,023.3,11.4,0000.0,0010.34,0004.60,0003.98
2024-01-04 06:24:00,SystemResetWarning,0826.2,5.00,000.00,021.9,021.1,000.0,030.3,023.3,11.5,0000.0,0010.23,0004.63,0004.00
2024-01-04 06:25:00,SystemResetWarning,0826.2,5.00,000.00,021.9,021.1,000.0,030.3,023.2,11.5,0000.0,0010.43,0004.67,0004.02
2024-01-04 06:26:00,SystemResetWarning,0826.2,5.00,000.00,021.9,021.1,000.0,030.3,023.2,11.5,0000.0,0011.20,0004.72,0004.07
2024-01-04 06:27:00,SystemResetWarning,0826.2,5.00,000.00,021.9,021.1,000.0,030.3,023.2,11.6,0000.0,0011.07,0004.74,0004.10
2024-01-04 06:28:00,SystemResetWarning,0826.2,5.00,000.00,021.9,021.1,000.0,030.3,023.2,11.6,0000.0,0011.65,0004.78,0004.14
2024-01-04 06:29:00,SystemResetWarning,0826.2,5.00,000.00,021.9,021.1,000.0,030.3,023.2,11.7,0000.0,0011.69,0004.81,0004.18
2024-01-04 06:30:00,SystemResetWarning,0826.2,5.01,000.00,021.9,021.1,000.0,030.3,023.2,11.7,0000.0,0011.79,0004.87,0004.23
2024-01-04 06:31:00,SystemResetWarning,0826.2,5.01,000.00,021.9,021.1,000.0,030.3,023.3,11.7,0000.0,0012.09,0004.94,0004.28
2024-01-04 06:32:00,SystemResetWarning,0826.2,5.00,000.00,021.9,021.1,000.0,030.3,023.3,11.7,0000.0,0012.39,0005.05,0004.35
2024-01-04 06:33:00,SystemResetWarning,0826.2,5.01,000.00,021.9,021.1,000.0,030.3,023.2,11.7,0000.0,0012.75,0005.15,0004.41
2024-01-04 06:34:00,SystemResetWarning,0826.2,5.00,000.00,021.9,021.1,000.0,030.3,023.3,11.6,0000.0,0012.73,0005.21,0004.48
2024-01-04 06:35:00,SystemResetWarning,0826.2,4.99,000.00,021.9,021.1,000.0,030.3,023.3,11.6,0000.0,0012.53,0005.27,0004.56
2024-01-04 06:36:00,SystemResetWarning,0826.2,4.99,000.00,021.9,021.1,000.0,030.3,023.2,11.7,0000.0,0012.58,0005.39,0004.64
2024-01-04 06:37:00,SystemResetWarning,0826.2,4.99,000.00,021.9,021.1,000.0,030.3,023.2,11.7,0000.0,0012.16,0005.43,0004.71
2024-01-04 06:38:00,SystemResetWarning,0826.2,5.00,000.00,021.9,021.1,000.0,030.3,023.2,11.8,0000.0,0012.18,0005.50,0004.78
2024-01-04 06:39:00,SystemResetWarning,0826.1,5.00,000.00,021.9,021.1,000.0,030.3,023.3,11.8,0000.0,0012.09,0005.60,0004.88
2024-01-04 06:40:00,SystemResetWarning,0826.1,5.01,000.00,021.9,021.1,000.0,030.3,023.3,11.9,0000.0,0012.94,0005.71,0004.97
2024-01-04 06:41:00,SystemResetWarning,0826.1,5.00,000.00,021.9,021.1,000.0,030.3,023.3,11.9,0000.0,0013.79,0005.81,0005.05
2024-01-04 06:42:00,SystemResetWarning,0826.1,5.00,000.00,021.9,021.0,000.0,030.2,023.3,11.9,0000.0,0014.32,0005.89,0005.12
2024-01-04 06:43:00,SystemResetWarning,0826.0,5.00,000.00,021.9,021.0,000.0,030.2,023.2,11.9,0000.0,0014.47,0005.99,0005.21
2024-01-04 06:44:00,SystemResetWarning,0826.0,5.00,000.00,021.9,021.0,000.0,030.2,023.2,11.9,0000.0,0014.18,0006.01,0005.26
2024-01-04 06:45:00,SystemResetWarning,0826.0,5.00,000.00,021.9,021.0,000.0,030.2,023.3,11.8,0000.0,0014.44,0006.04,0005.29
2024-01-04 06:46:00,SystemResetWarning,0826.0,5.00,000.00,021.9,021.0,000.0,030.2,023.3,11.8,0000.0,0014.43,0006.05,0005.29
2024-01-04 06:47:00,SystemResetWarning,0826.0,5.00,000.00,021.9,020.9,000.0,030.2,023.2,11.8,0000.0,0014.24,0005.98,0005.25
2024-01-04 06:48:00,SystemResetWarning,0826.0,4.99,000.00,021.9,020.9,000.0,030.2,023.3,11.8,0000.0,0014.17,0005.97,0005.23
2024-01-04 06:49:00,SystemResetWarning,0826.0,5.00,000.00,021.9,020.9,000.0,030.2,023.3,11.9,0000.0,0014.62,0005.98,0005.23
2024-01-04 06:50:00,SystemResetWarning,0826.0,5.00,000.00,021.9,020.9,000.0,030.2,023.2,12.0,0000.0,0015.76,0005.99,0005.24
2024-01-04 06:51:00,SystemResetWarning,0826.0,5.00,000.00,021.9,020.9,000.0,030.2,023.2,12.0,0000.0,0016.36,0006.06,0005.26
2024-01-04 06:52:00,SystemResetWarning,0826.0,5.00,000.00,021.9,020.9,000.0,030.2,023.2,12.1,0000.0,0016.15,0006.11,0005.29
2024-01-04 06:53:00,SystemResetWarning,0825.9,4.99,000.00,021.9,020.9,000.0,030.2,023.2,12.1,0000.0,0015.79,0006.18,0005.33
2024-01-04 06:54:00,SystemResetWarning,0825.9,5.00,000.00,021.9,020.9,000.0,030.2,023.2,12.0,0000.0,0015.51,0006.22,0005.36
2024-01-04 06:55:00,SystemResetWarning,0825.9,5.00,000.00,021.9,020.9,000.0,030.2,023.2,11.8,0000.0,0015.25,0006.27,0005.40
2024-01-04 06:56:00,SystemResetWarning,0825.9,5.00,000.00,021.9,020.9,000.0,030.2,023.2,11.7,0000.0,0014.53,0006.35,0005.46
2024-01-04 06:57:00,SystemResetWarning,0825.9,5.00,000.00,021.9,020.9,000.0,030.2,023.2,11.8,0000.0,0014.77,0006.43,0005.54
2024-01-04 06:58:00,SystemResetWarning,0825.9,5.01,000.00,021.9,020.9,000.0,030.2,023.2,11.8,0000.0,0015.00,0006.52,0005.62
2024-01-04 06:59:00,SystemResetWarning,0826.0,5.00,000.00,021.9,020.9,000.0,030.2,023.2,11.8,0000.0,0014.97,0006.59,0005.68
